Home   Weather   42°22'N, 83°25'W   Past weeks
Flag for USA

Past Weather in 42°22'N, 83°25'W, USA — Yesterday and Last 2 Weeks

Now
54 °F

Scattered clouds.


Feels Like: 50 °F
Forecast: 58 / 48 °F
Wind: 13 mph from Southwest

Location: Detroit City Airport

Current Time: Oct 22, 2019 at 10:06:19 am

Latest Report: Oct 22, 2019 at 8:53 am


Visibility: 10 mi

Pressure: 29.65 "Hg

Humidity: 67%

Dew Point: 43 °F

Location of 42°22'N, 83°25'WLocation

Past Weather in 42°22'N, 83°25'W — Graph

°F

42°22'N, 83°25'W Temperature Yesterday

Maximum temperature yesterday: 67 °F (at 1:53 pm)
Minimum temperature yesterday: 48 °F (at 3:53 am)
Average temperature yesterday: 57 °F

High & Low Weather Summary for the Past Weeks

 TemperatureHumidityPressure
High70 °F (Oct 10, 2:53 pm)100% (Oct 9, 5:53 am)30.29 "Hg (Oct 9, 5:53 am)
Low36 °F (Oct 15, 5:53 am)28% (Oct 13, 4:53 pm)29.58 "Hg (Oct 16, 2:53 pm)
Average53 °F71%29.96 "Hg
* Reported Oct 7 8:53 am — Oct 22 8:53 am, 42°22'N, 83°25'W. Weather by CustomWeather, © 2019

Note: Actual official high and low records may vary slightly from our data, if they occured in-between our weather recording intervals... More about our weather records

Advertising

42°22'N, 83°25'W Weather History for the Previous 24 Hours

Scroll right to see more
 ConditionsComfort  
Time TempWeatherWind HumidityBarometerVisibility
8:53 am
Tue, Oct 22
54 °FScattered clouds.13 mph67%29.65 "Hg10 mi
7:53 am52 °FSunny.10 mph75%29.66 "Hg10 mi
6:53 am52 °FClear.9 mph77%29.65 "Hg10 mi
5:53 am51 °FClear.7 mph77%29.65 "Hg10 mi
4:53 am53 °FClear.7 mph77%29.66 "Hg10 mi
3:53 am56 °FPartly cloudy.9 mph72%29.67 "Hg10 mi
3:28 am59 °FRain. Partly cloudy.12 mph96%29.67 "Hg8 mi
2:53 am60 °FClear.12 mph96%29.65 "Hg10 mi
1:53 am61 °FPassing clouds.18 mph93%29.65 "Hg10 mi
1:09 am62 °FMostly cloudy.14 mph93%29.64 "Hg10 mi
9:53 pm
Mon, Oct 21
63 °FLight rain. Mostly cloudy.16 mph93%29.66 "Hg10 mi
8:53 pm63 °FLight rain. Overcast.10 mph81%29.67 "Hg10 mi
7:53 pm62 °FLight rain. Overcast.10 mph78%29.67 "Hg10 mi
6:53 pm61 °FLight rain. Overcast.9 mph78%29.69 "Hg10 mi
5:53 pm61 °FOvercast.16 mph78%29.70 "Hg10 mi
4:53 pm61 °FLight rain. Overcast.14 mph78%29.71 "Hg10 mi
3:53 pm64 °FLight rain. Mostly cloudy.13 mph68%29.75 "Hg7 mi
2:53 pm67 °FPassing clouds.14 mph53%29.78 "Hg10 mi
1:53 pm67 °FMostly cloudy.14 mph53%29.78 "Hg10 mi
12:53 pm66 °FOvercast.13 mph61%29.84 "Hg10 mi
11:53 am64 °FOvercast.10 mph73%29.87 "Hg10 mi
10:53 am61 °FSunny.10 mph81%29.88 "Hg10 mi
Weather by CustomWeather, © 2019

See weather overview